STARLINK-2680 (48432 NORAD) Tracking and Keplerian Element Data

This shows tracking and keplerian element data for the satellite.

Feedback or suggestion? Click here.




ElementValue
Catalog48432
NameSTARLINK-2680
Epoch Orbit1417
Epoch Day215.25002315
Epoch Year2021
RAAN155.6873
Inclination53.0471
Eccentricity0.0002442
Argument of Perigee28.8214
Mean Anonmoly164.8162
Mean Motion15.73165441
Decay Rate0.00064272
L11 48432U 21040E 21215.25002315 .00064272 00000-0 45942-3 0 9995
L22 48432 53.0471 155.6873 0002442 28.8214 164.8162 15.73165441 14173

Live tracking and technical data element details for STARLINK-2680 (NORAD 48432). STARLINK-2680 can be tracked NOW for your location showing map with azimuth and elevation plus other details from your city location.

Track the satellite on the map from your city or location and see movement details for azimuth, elevation, latitude, longitude, range, height, and movement on the map or in text.







IsCatalogInMostPopularTable: catalog: 48432, numindb: 29
Update: records affected: 1



GetName: 48432 STARLINK-2680

Hit Count: updated at: Tue, 03 Aug 2021 22:34:27 GMT